Location: Bussy
(49.6253°N, 2.9823°E)
Time: 00:59:57
(UTC+00:00)

Daily predictions for brighter satellites

Satellite Brightness Start Highest point End
(mag) Time Altitude Azimuth Time Altitude Azimuth Time Altitude Azimuth
ATLAS 2AS CENTAUR R/B 4.3 02:27:31 31° NNE 02:27:31 31° NNE 02:33:23 10° ENE
Cosmos 2082 Rocket 4.1 02:56:58 25° E 02:56:58 25° E 03:01:12 10° NE
CZ-4C R/B 4.1 03:00:05 26° NNE 03:00:05 26° NNE 03:02:56 10° NE
USA 234 4.1 02:58:31 10° ENE 03:03:05 42° NNE 03:03:05 42° NNE
Cosmos 1833 Rocket 4.1 03:15:03 35° ENE 03:15:03 35° ENE 03:18:38 10° NE
SJ 16-02 4.4 03:21:49 10° ESE 03:23:51 13° E 03:25:54 10° ENE
SL-16 R/B 4.0 03:23:51 22° NNE 03:25:32 26° NE 03:30:12 10° E
ATLAS 5 CENTAUR R/B 4.1 03:26:39 68° WNW 03:28:05 80° SW 03:59:26 10° SE
Cosmos 1980 Rocket 3.1 03:34:04 44° ESE 03:34:04 44° ESE 03:38:01 10° SE
Cosmos 2322 Rocket 4.0 03:33:12 20° N 03:35:24 26° NE 03:40:05 10° E
Lacrosse 5 rocket 4.2 03:40:34 11° NE 03:40:34 11° NE 03:40:48 10° NE
Lacrosse 5 2.5 03:54:19 54° E 03:54:19 54° E 03:58:36 10° ENE
Cosmos 839 Rocket 4.4 03:57:11 35° S 04:00:05 63° ESE 04:06:16 10° NE
CZ-2C R/B 3.2 03:55:23 10° NNE 04:00:10 49° E 04:02:52 23° SSE
Cosmos 2058 4.5 03:58:43 12° SSE 04:02:08 35° E 04:05:59 10° NNE
SL-4 R/B 2.9 04:05:33 57° ENE 04:05:33 57° ENE 04:09:36 10° E
CZ-4B R/B 4.5 04:02:29 10° NNE 04:05:09 30° ENE 04:05:09 30° ENE
ASTEX 1 3.8 04:01:45 10° SSE 04:06:37 61° E 04:11:33 10° N
Meteor 1-31 Rocket 4.0 04:05:33 10° NNE 04:09:00 40° E 04:09:00 40° E
Cosmos 1934 Rocket 3.9 04:12:16 67° WNW 04:12:16 67° WNW 04:18:29 10° N
Gbstr 26 Del rocket 4.3 04:13:09 31° SE 04:13:09 31° SE 04:16:02 10° E
Cosmos 1076 Rocket 3.8 04:18:24 67° ENE 04:18:24 67° ENE 04:22:29 10° NNE
Meteor 2-2 Rocket 4.0 04:17:32 55° NNW 04:18:50 79° W 04:24:27 10° S
ATLAS 2AS CENTAUR R/B 3.2 04:14:58 28° NNW 04:19:18 62° NE 04:26:28 10° ESE
Cosmos 1898 Rocket 4.2 04:15:20 10° S 04:20:24 53° ESE 04:25:33 10° NNE
Cosmos 1447 Rocket 4.4 04:17:29 10° N 04:23:53 86° W 04:30:14 10° S
Cosmos 967 Rocket 4.5 04:24:59 35° SSW 04:27:54 85° SE 04:34:23 10° NE
Cosmos 1937 Rocket 4.4 04:26:24 10° S 04:31:19 47° ESE 04:36:14 10° NNE
COSMOS 2406 4.3 04:33:14 30° NNW 04:33:14 30° NNW 04:37:20 10° NNE
IDEFIX/ARIANE 42P 3.7 04:34:20 10° N 04:37:09 27° NNW 04:37:09 27° NNW
COSMOS 2455 2.9 04:35:58 29° NNW 04:39:14 79° NE 04:45:15 10° SE
Meteor 2-20 4.3 04:33:18 10° NNW 04:39:29 77° W 04:45:38 10° S
Cosmos 2082 Rocket 2.2 04:38:54 48° WSW 04:40:16 63° WNW 04:45:58 10° NNE
MSX 3.9 04:37:10 10° N 04:42:45 54° WNW 04:44:49 36° WSW
CZ-4C R/B 3.6 04:45:15 25° NNW 04:46:34 26° NNW 04:52:11 10° NE
STARLINK-67 4.3 04:48:12 31° ENE 04:48:12 31° ENE 04:49:51 10° E
USA 234 3.8 04:41:04 10° ENE 04:47:17 48° N 04:50:25 28° NW
COBE Rocket 3.8 04:42:09 10° S 04:47:18 76° WSW 04:52:23 10° NNW
Cosmos 1153 Rocket 4.3 04:42:53 10° SSW 04:49:01 79° W 04:55:13 10° N
Okean 3 Rocket 3.9 04:45:59 10° S 04:50:29 68° E 04:54:58 10° NNE
STARLINK-52 3.3 04:50:57 65° N 04:50:57 65° N 04:54:15 10° ENE
ATLAS CENTAUR R/B 4.2 04:48:11 10° SSE 04:52:01 23° ESE 04:55:47 10° ENE
STARLINK-43 3.6 04:51:35 53° SSW 04:52:11 64° SSE 04:55:54 10° ENE
Cosmos 1766 Rocket 4.3 04:47:58 10° S 04:52:11 54° E 04:56:27 10° NNE
PSLV R/B 4.1 04:48:29 10° NNE 04:52:19 65° ESE 04:56:13 10° S
PAYLOAD A 4.2 04:50:10 10° N 04:55:17 50° WNW 04:59:01 19° SW
Cosmos 1833 Rocket 3.2 04:56:48 35° WNW 04:57:21 36° NW 05:02:33 10° NNE
Cosmos 2173 Rocket 4.1 04:52:06 10° S 04:58:21 76° E 05:04:33 10° NNE
Cosmos 1605 Rocket 4.2 04:53:39 10° SW 04:59:34 46° WNW 05:05:28 10° N
Cosmos 2151 3.3 04:55:37 10° S 04:59:53 70° E 05:04:12 10° NNE
STARLINK-60 3.4 05:00:11 52° N 05:00:11 52° N 05:03:30 10° ENE
COSMO-SKYMED 1 2.4 04:56:19 10° SSE 05:00:40 83° WSW 05:05:02 10° NNW
SJ 16-02 1.2 04:57:52 13° SSW 05:01:49 77° WNW 05:06:13 10° NNE
H-2A R/B 3.2 05:00:19 10° N 05:04:14 36° WNW 05:04:14 36° WNW
STARLINK-29 3.2 05:04:21 54° NW 05:04:39 57° NNW 05:08:06 10° ENE
Shenzhou-11 Module 3.9 05:06:37 17° S 05:06:37 17° S 05:08:19 10° SE
SL-16 R/B 2.1 05:05:45 17° NNW 05:10:15 76° WSW 05:15:55 10° SSE
Cosmos 2360 Rocket 2.8 05:04:50 10° NNW 05:10:27 55° NE 05:16:01 10° SE
BREEZE-M DEB (TANK) 4.1 05:04:38 22° WNW 05:13:07 59° SW 05:17:20 10° SE
CZ-4B R/B 4.4 05:09:12 10° N 05:13:30 46° WNW 05:17:47 10° SW
Cosmos 1980 Rocket 3.2 05:15:56 24° WSW 05:15:56 24° WSW 05:20:23 10° SSW
Cosmos 158 Rocket 4.4 05:15:57 29° WNW 05:17:27 35° WSW 05:21:53 10° SSW
Lacrosse 5 rocket 2.3 05:16:13 23° NNW 05:17:33 30° NNE 05:20:46 10° ENE
FALCON 9 DEB 3.5 05:18:07 39° NW 05:18:57 50° N 05:22:19 10° ENE
Cosmos 2322 Rocket 2.1 05:15:02 13° NNW 05:20:03 74° WSW 05:25:42 10° SSE
Meteor PRIRODA 3.8 05:18:03 10° N 05:21:36 47° WNW 05:25:07 10° SW
SL-27 R/B 3.0 05:21:59 34° NW 05:21:59 34° NW 05:24:47 10° N
Cosmos 2228 Rocket 4.3 05:17:46 10° N 05:22:12 46° ENE 05:26:36 10° SSE
Helios 1A Rocket 3.4 05:18:36 10° NNE 05:22:42 62° ESE 05:26:45 10° S
Okean O Rocket 2.1 05:19:37 10° NNE 05:23:58 63° ESE 05:28:16 10° S
COSMOS 2487 4.0 05:21:01 10° S 05:24:15 38° ESE 05:27:29 10° NE
Cosmos 1048 Rocket 4.3 05:23:20 10° NNW 05:28:44 71° ENE 05:34:05 10° SSE
Cosmos 2346 Rocket 4.4 05:22:36 10° N 05:28:45 87° E 05:34:48 10° S
NOSS 3-4 (A) 3.8 05:24:11 15° NW 05:30:14 82° SW 05:37:53 10° SE
NOSS 3-4 (C) 3.8 05:24:17 15° NW 05:30:20 82° SW 05:37:59 10° SE
Cosmos 990 Rocket 4.2 05:25:32 10° SW 05:30:32 48° WNW 05:35:36 10° NNE
USA 116 3.4 05:30:19 10° S 05:33:27 52° W 05:36:56 10° NNW
Lacrosse 5 2.2 05:33:33 21° W 05:36:45 48° NNW 05:41:40 10° NE
CZ-2C R/B 3.3 05:34:05 10° N 05:38:08 26° WNW 05:42:02 10° WSW
Cosmos 1408 2.5 05:34:43 10° SSW 05:38:24 73° W 05:42:06 10° N
Cosmos 2058 3.9 05:35:37 10° SW 05:39:07 25° WNW 05:42:39 10° NNW
CZ-4B R/B 3.8 05:37:56 10° NNW 05:40:46 22° WNW 05:41:16 21° WNW
NOSS 3-3 (A) 4.0 05:34:51 10° WSW 05:40:52 63° NW 05:47:42 10° NE
NOSS 3-3 (C) 4.0 05:34:58 10° WSW 05:40:58 64° NW 05:47:48 10° NE
Cosmos 1459 Rocket 4.1 05:37:07 10° SSW 05:43:09 55° WNW 05:49:22 10° N
Meteor 1-31 Rocket 4.0 05:40:30 10° NNW 05:43:24 21° WNW 05:44:22 19° W
SL-4 R/B 2.5 05:41:10 19° WNW 05:44:36 65° SSW 05:49:21 10° SE
Cosmos 2322 4.2 05:39:28 10° NNW 05:45:08 60° ENE 05:50:44 10° SE
Cosmos 1725 Rocket 4.0 05:40:26 10° S 05:46:43 87° W 05:53:04 10° N
SKYMED 2 4.4 05:45:14 10° SSW 05:49:00 28° W 05:52:48 10° NW
Cosmos 1238 Rocket 4.4 05:43:11 10° S 05:49:43 68° E 05:55:42 10° NNE
Cosmos 2016 Rocket 4.0 05:43:40 10° SSW 05:49:53 69° WNW 05:56:14 10° N
Cosmos 1484 Rocket 3.5 05:46:25 10° N 05:50:02 33° WNW 05:53:38 10° SW
Cosmos 2333 Rocket 3.3 05:45:10 10° NNW 05:50:42 45° NE 05:56:13 10° SE
CZ-4B R/B 3.1 05:45:36 10° NNE 05:51:00 84° WNW 05:56:28 10° SSW
Cosmos 1328 Rocket 3.9 05:47:15 10° NNW 05:51:19 40° W 05:55:21 10° SSW
Cosmos 1515 Rocket 3.5 05:47:08 10° NNW 05:51:27 63° W 05:55:43 10° S
Cosmos 1606 2.6 05:47:49 10° N 05:51:37 86° W 05:55:25 10° S
Cosmos 1151 Rocket 3.4 05:48:29 10° NNW 05:52:39 42° W 05:56:45 10° SSW
FENGYUN 3A 3.6 05:47:50 10° N 05:53:15 69° WNW 05:58:37 10° SSW
Cosmos 1892 3.6 05:50:02 10° SW 05:53:19 27° WNW 05:56:35 10° NNW
Cosmos 1400 Rocket 2.9 05:52:58 10° N 05:57:05 83° ENE 06:01:08 10° SSE
STARLINK-80 3.4 05:54:07 11° WSW 05:57:51 80° NNW 06:01:43 10° ENE
Cosmos 1743 Rocket 3.5 05:53:53 10° S 05:58:13 88° E 06:02:34 10° N
SJ-12 4.4 05:54:45 10° N 05:58:36 37° WNW 06:02:26 10° SW
Gbstr 26 Del rocket 2.6 05:55:43 12° WSW 05:59:13 78° NNW 06:03:00 10° ENE
Meteor 1-26 Rocket 4.3 05:53:25 10° NNW 05:59:13 90° W 06:04:50 10° S
METEOR-M 4.2 05:55:01 10° N 06:00:16 58° WNW 06:05:28 10° SSW
Tsikada Rocket 4.1 05:55:36 10° NNW 06:01:56 65° W 06:08:12 10° S
Cosmos 1269 Rocket 4.5 05:56:56 10° NNW 06:02:15 66° ENE 06:07:31 10° SE
Cosmos 2219 Rocket 3.0 05:57:05 10° NNW 06:02:37 50° NE 06:08:06 10° SE
Cosmos 1898 Rocket 4.4 05:58:15 10° WSW 06:02:47 29° NW 06:07:22 10° N
PAYLOAD B 4.3 05:58:08 10° N 06:03:30 54° WNW 06:08:49 10° SW
ALOS 2.5 06:00:14 10° N 06:04:43 46° WNW 06:09:10 10° SW
STARLINK-46 2.8 06:06:13 13° WNW 06:08:47 69° NNE 06:11:46 10° ESE
ATLAS 2AS CENTAUR R/B 3.3 06:03:00 10° NW 06:10:04 42° WSW 06:16:37 10° S
CZ-4 R/B 4.3 06:07:47 10° NE 06:10:35 19° E 06:13:20 10° SE
STARLINK-35 4.5 06:07:55 10° SW 06:11:56 52° SSE 06:15:59 10° ENE
SMAP 3.5 06:07:17 10° NNE 06:11:58 68° ESE 06:16:36 10° S
Cosmos 1937 Rocket 4.2 06:08:59 10° WSW 06:13:29 30° NW 06:18:01 10° N
STARLINK-51 4.5 06:09:35 10° SW 06:13:37 53° SSE 06:17:41 10° ENE
STARLINK-30 4.4 06:11:14 10° SW 06:15:17 54° SSE 06:19:21 10° ENE
Cosmos 1825 2.6 06:11:53 10° SW 06:15:25 38° WNW 06:18:59 10° N
Cosmos 1408 Rocket 4.2 06:12:46 10° SW 06:16:41 33° WNW 06:20:40 10° N
STARLINK-33 4.4 06:12:53 10° SW 06:16:56 56° SSE 06:21:00 10° ENE
STARLINK-50 4.3 06:14:31 10° SW 06:18:35 57° SSE 06:22:40 10° ENE
STARLINK-48 3.4 06:16:16 10° WSW 06:20:10 75° NNW 06:24:05 10° ENE
H-2A R/B 2.8 06:16:42 10° NNE 06:20:27 82° ESE 06:24:09 10° SSW
Cosmos 2150 Rocket 4.2 06:15:30 10° SW 06:20:51 55° WNW 06:26:12 10° NNE
STARLINK-67 3.5 06:19:09 10° W 06:21:36 33° SSW 06:24:00 10° SSE
STARLINK-56 4.3 06:17:48 10° SW 06:21:53 59° SSE 06:25:58 10° ENE
Cosmos 1500 Rocket 3.6 06:18:08 10° SSW 06:22:33 60° WNW 06:26:58 10° N
Cosmos 494 Rocket 4.0 06:17:24 10° NNW 06:22:41 78° WSW 06:27:54 10° SSE
Starlink (trailer) 4.2 06:19:36 10° SW 06:23:41 61° SSE 06:27:48 10° ENE
COSMOS 2455 4.1 06:20:03 10° WNW 06:24:32 22° WSW 06:29:00 10° SSW
STARLINK-38 4.2 06:21:07 10° SW 06:25:13 62° SSE 06:29:20 10° ENE
Cosmos 2082 Rocket 3.7 06:21:49 10° WNW 06:25:33 17° NW 06:29:18 10° N
SL-16 R/B 4.3 06:21:46 10° N 06:25:48 19° NE 06:29:50 10° E
NOAA 6 4.4 06:21:18 10° N 06:26:09 43° WNW 06:30:58 10° SW
STARLINK-65 4.1 06:22:48 10° SW 06:26:54 63° SSE 06:31:01 10° ENE
Cosmos 1125 Rocket 3.5 06:21:44 10° SSW 06:27:02 83° WNW 06:32:20 10° NNE
RESURS DK-1 3.9 06:23:31 10° NNW 06:27:17 32° NE 06:31:03 10° ESE
STARLINK-52 3.7 06:24:52 10° WNW 06:28:18 47° N 06:31:43 10° E
STARLINK-26 3.9 06:25:16 10° SW 06:29:20 71° SSE 06:33:26 10° ENE
USA 234 3.5 06:23:22 10° ESE 06:29:54 74° NNE 06:36:26 10° WNW
STARLINK-43 3.6 06:26:39 10° W 06:30:19 53° N 06:33:59 10° ENE
ATLAS CENTAUR R/B 1.8 06:25:46 10° SW 06:30:39 67° NW 06:35:23 10° NE
